Weather observations for the past three days for
Hillsboro, Hillsboro Municipal Airport
Imperial (Metric)
Date Time (cdt) Wind (mph) Vis. (mi.) Weather Sky Cond. Temperature (ºF) Relative Humidity Wind Chill (°F) Heat Index (°F) Pressure Precipitation (in)
Air Dwpt 6 hour altimeter (in) sea level (mb) 1 hr 3 hr 6 hr
Max. Min.
15 12:15 SW 13 G 18 10.00 Fair CLR 92.5 73.2 53% 102 30.03 0.0
15 11:55 S 12 G 21 10.00 Fair CLR 91.9 73.4 55% 101 30.04 0.0
15 11:35 SW 12 G 18 10.00 Fair CLR 91.2 74.7 58% 102 30.04 0.0
15 11:15 S 14 G 20 10.00 Fair CLR 90 73.6 59% 99 30.05 0.0
15 10:55 S 14 G 21 10.00 Fair CLR 88.9 73.6 61% 97 30.06 0.0
15 10:35 S 14 G 18 10.00 Fair CLR 87.8 73.8 63% 96 30.05 0.0
15 10:15 SW 14 10.00 Fair CLR 86.7 74.5 67% 95 30.07 0.0
15 09:55 S 12 10.00 Fair CLR 86 74.5 69% 94 30.07 0.0
15 09:35 S 9 10.00 Fair CLR 85.1 74.5 71% 93 30.08 0.0
15 09:15 S 14 10.00 Fair CLR 83.7 74.5 74% 91 30.07 0.0
15 08:55 SW 10 10.00 Fair CLR 82.4 74.5 77% 89 30.08 0.0
15 08:35 SW 10 10.00 Fair CLR 81 78.3 92% 89 30.07 0.0
15 08:15 S 10 10.00 Fair CLR 79.7 79.3 99% 86 30.07 0.0
15 07:55 S 8 10.00 Fair CLR 78.3 78.3 100% 81 30.06 0.0
15 07:35 S 8 10.00 Fair CLR 77 77 100% 78 30.06 0.0
15 07:15 S 7 10.00 Fair CLR 76.1 76.1 100% 75 30.06 0.0
15 06:55 S 6 10.00 Fair CLR 75.4 75.4 79.7 75.4 100% 73 30.05 0.0
15 06:35 S 7 10.00 Fair CLR 75.4 75.4 100% 73 30.05 0.0
15 06:15 S 7 10.00 Fair CLR 75.6 75.6 100% 74 30.04 0.0
15 05:55 S 3 10.00 Fair CLR 75.6 75.6 100% 74 30.04 0.0
15 05:35 S 5 10.00 Fair CLR 75.4 73.9 95% 74 30.04 0.0
15 05:15 S 7 10.00 Fair CLR 75.6 73.6 94% 75 30.03 0.0
15 04:55 S 6 10.00 Fair CLR 75.4 71.2 87% 75 30.03 0.0
15 04:35 S 5 10.00 Fair CLR 75.7 70.7 84% 76 30.03 0.0
15 04:15 S 6 10.00 Fair CLR 76.1 70.9 84% 77 30.03 0.0
15 03:55 S 5 10.00 Fair CLR 76.3 70.3 82% 77 30.04 0.0
15 03:35 S 6 10.00 Fair CLR 77 70.3 80% 79 30.03 0.0
15 03:15 S 5 10.00 Fair CLR 77.7 70.7 79% 80 30.03 0.0
15 02:55 S 7 10.00 Fair CLR 77.9 70.9 79% 80 30.03 0.0
15 02:35 S 7 10.00 Fair CLR 77.9 70.9 79% 80 30.03 0.0
15 02:15 S 7 10.00 Fair CLR 77.2 70.2 79% 79 30.03 0.0
15 01:55 S 6 10.00 Fair CLR 77.4 69.8 78% 79 30.04 0.0
15 01:35 S 6 10.00 Fair CLR 78.3 70.2 76% 81 30.04 0.0
15 01:15 S 7 10.00 Fair CLR 79 70.3 75% 82 30.04 0.0
15 00:55 S 7 10.00 Fair CLR 79.7 70.7 95.5 79.7 74% 83 30.05 0.0
15 00:35 S 7 10.00 Fair CLR 80.4 70.9 73% 84 30.05 0.0
15 00:15 S 8 10.00 Fair CLR 80.8 71.4 73% 85 30.05 0.0
14 23:55 S 6 10.00 Fair CLR 81.1 71.6 73% 85 30.05 0.0
14 23:35 S 8 10.00 Fair CLR 81.5 71.6 72% 86 30.04 0.0
14 23:15 S 7 10.00 Fair CLR 82.4 71.8 70% 87 30.04 0.0
14 22:55 S 9 10.00 Fair CLR 82.6 71.6 70% 87 30.04 0.0
14 22:35 S 7 10.00 Fair CLR 83.3 70.9 66% 88 30.04 0.0
14 22:15 SE 8 10.00 Fair CLR 84 70 63% 88 30.03 0.0
14 21:55 S 7 10.00 Fair CLR 84.9 69.4 60% 89 30.03 0.0
14 21:35 S 7 10.00 Fair CLR 85.3 70 60% 90 30.03 0.0
14 21:15 SE 7 10.00 Fair CLR 86.4 69.8 58% 91 30.03 0.0
14 20:55 S 9 10.00 Fair CLR 87.8 70 56% 93 30.02 0.0
14 20:35 S 12 10.00 Fair CLR 89.1 70 53% 94 30.02 0.0
14 20:15 S 13 G 18 10.00 Fair CLR 90.7 70.3 51% 97 30.02 0.0
14 19:55 S 14 G 18 10.00 Fair CLR 92.1 71.6 51% 99 30.01 0.0
14 19:35 S 15 G 18 10.00 Fair CLR 94.1 69.3 44% 100 30.01 0.0
14 19:15 S 16 G 21 10.00 Fair CLR 94.8 67.8 41% 99 30.01 0.0
14 18:55 S 13 G 20 10.00 Fair CLR 95.5 69.4 98.4 93.2 43% 102 30.01 0.0
14 18:35 S 15 G 20 10.00 Fair CLR 96.8 68.4 40% 102 30.01 0.0
14 18:15 S 15 G 20 10.00 Fair CLR 97 67.6 38% 102 30.01 0.0
14 17:55 S 13 G 18 10.00 Fair CLR 97.2 67.3 38% 102 30.02 0.0
14 17:35 S 12 G 17 10.00 Fair CLR 97.7 67.8 38% 103 30.02 0.0
14 17:15 SW 10 G 18 10.00 Fair CLR 97.3 68.9 40% 103 30.03 0.0
14 16:55 S 10 G 18 10.00 Fair CLR 98.2 69.3 39% 105 30.04 0.0
14 16:35 SW 8 10.00 Partly Cloudy SCT065 97.9 69.8 40% 105 30.04 0.0
14 16:15 S 13 G 17 10.00 Partly Cloudy SCT060 97.5 70.3 41% 105 30.05 0.0
14 15:55 SW 8 G 17 10.00 Partly Cloudy SCT060 96.8 70 42% 104 30.05 0.0
14 15:35 S 10 10.00 Fair CLR 97.7 70.7 42% 105 30.06 0.0
14 15:15 S 8 G 16 10.00 Fair CLR 97.7 71.6 43% 106 30.07 0.0
14 14:55 S 10 10.00 Fair CLR 96.4 72.3 46% 106 30.08 0.0
14 14:35 SW 5 10.00 Fair CLR 95.9 69.8 43% 102 30.08 0.0
14 14:15 SW 9 10.00 Fair CLR 95.9 71.4 45% 104 30.09 0.0
14 13:55 SW 9 10.00 Fair CLR 95 72.3 48% 104 30.1 0.0
14 13:35 S 5 10.00 Fair CLR 94.1 72.5 50% 103 30.11 0.0
14 13:15 SW 6 10.00 Fair CLR 93.2 72.5 51% 102 30.12 0.0
14 12:55 S 10 10.00 Fair CLR 93.4 73.8 93.4 73.4 53% 103 30.13 0.0
14 12:35 W 6 G 16 10.00 Fair CLR 92.1 73.4 54% 101 30.14 0.0
14 12:15 S 9 10.00 Fair CLR 91 73.6 57% 100 30.14 0.0
14 11:55 S 12 G 17 10.00 Fair CLR 90.5 74.3 59% 100 30.15 0.0
14 11:35 S 9 10.00 Fair CLR 89.6 74.1 60% 99 30.15 0.0
14 11:15 S 8 10.00 Fair CLR 88.9 74.3 62% 98 30.15 0.0
14 10:55 S 10 10.00 Fair CLR 87.4 73.8 64% 96 30.15 0.0
14 10:35 S 9 10.00 Fair CLR 86.5 73.2 65% 94 30.16 0.0
14 10:15 SW 12 10.00 Fair CLR 85.5 73 66% 92 30.16 0.0
14 09:55 SW 9 10.00 Fair CLR 85.1 72.7 66% 92 30.16 0.0
14 09:35 S 8 10.00 Fair CLR 84 73.6 71% 91 30.16 0.0
14 09:15 S 8 10.00 Fair CLR 82.4 73.4 74% 88 30.16 0.0
14 08:55 SW 9 10.00 Fair CLR 81 73.4 78% 86 30.16 0.0
14 08:35 S 8 10.00 Fair CLR 79.9 76.6 90% 85 30.16 0.0
14 08:15 S 5 10.00 Fair CLR 78.4 77.9 98% 82 30.16 0.0
14 07:55 S 6 10.00 Fair CLR 76.8 76.8 100% 77 30.15 0.0
14 07:35 S 6 10.00 Fair CLR 75.4 75.4 100% 73 30.15 0.0
14 07:15 S 5 10.00 Fair CLR 74.3 74.3 100% 30.14 0.0
14 06:55 S 5 10.00 Fair CLR 73.4 73.4 77.4 72.9 100% 30.14 0.0
14 06:35 S 3 10.00 Fair CLR 73.4 73.4 100% 30.14 0.0
14 06:15 Calm 10.00 Fair CLR 72.9 70.5 92% 30.14 0.0
14 05:55 Calm 10.00 Fair CLR 73 70.2 91% 30.14 0.0
14 05:35 Calm 10.00 Fair CLR 73 70 90% 30.14 0.0
14 05:15 Calm 10.00 Fair CLR 73.4 69.8 89% 30.14 0.0
14 04:55 Calm 10.00 Fair CLR 73.4 69.8 89% 30.14 0.0
14 04:35 Calm 10.00 Fair CLR 73.6 69.8 88% 30.14 0.0
14 04:15 Calm 10.00 Fair CLR 73.8 69.4 86% 30.13 0.0
14 03:55 Calm 10.00 Fair CLR 74.1 69.3 85% 30.13 0.0
14 03:35 Calm 10.00 Fair CLR 74.7 69.8 85% 30.13 0.0
14 03:15 Calm 10.00 Fair CLR 74.8 70.2 85% 30.13 0.0
14 02:55 Calm 10.00 Fair CLR 75 70.2 85% 75 30.13 0.0
14 02:35 S 3 10.00 Fair CLR 75.2 70.7 86% 75 30.14 0.0
14 02:15 Calm 10.00 Fair CLR 75 70 84% 75 30.14 0.0
14 01:55 Calm 10.00 Fair CLR 75.6 70.7 85% 76 30.14 0.0
14 01:35 Calm 10.00 Fair CLR 76.1 70.7 83% 77 30.14 0.0
14 01:15 Calm 10.00 Fair CLR 77 71.2 82% 78 30.14 0.0
14 00:55 S 5 10.00 Fair CLR 77.4 72 86 77.4 84% 79 30.14 0.0
14 00:35 S 6 10.00 Fair CLR 77.5 72.1 84% 79 30.14 0.0
14 00:15 S 6 10.00 Fair CLR 77.9 72 82% 80 30.14 0.0
13 23:55 SE 6 10.00 Fair CLR 78.4 71.8 80% 81 30.14 0.0
13 23:35 S 8 10.00 Fair CLR 78.8 72 80% 82 30.14 0.0
13 23:15 S 8 10.00 Fair CLR 78.8 71.6 79% 82 30.14 0.0
13 22:55 SE 6 10.00 Fair CLR 78.8 71.2 78% 82 30.14 0.0
13 22:35 SE 7 10.00 Fair CLR 79.2 71.4 77% 82 30.14 0.0
13 22:15 SE 7 10.00 Fair CLR 79.7 71.6 76% 83 30.13 0.0
13 21:55 SE 5 10.00 Fair CLR 80.1 71.1 74% 84 30.13 0.0
13 21:35 SE 5 10.00 Fair CLR 80.6 71.2 73% 84 30.12 0.0
13 21:15 SE 5 10.00 Fair CLR 81.5 71.4 72% 86 30.13 0.0
13 20:55 SE 7 10.00 Fair CLR 82.4 72 71% 87 30.12 0.0
13 20:35 S 6 10.00 Fair CLR 83.5 72 68% 89 30.12 0.0
13 20:15 S 9 10.00 Fair CLR 85.1 71.8 64% 91 30.13 0.0
13 19:55 S 12 G 17 10.00 Partly Cloudy SCT070 86 72.5 64% 93 30.12 0.0
13 19:35 SE 9 10.00 Mostly Cloudy BKN070 86 72.5 64% 93 30.12 0.0
13 19:15 SE 8 10.00 Overcast OVC070 85.1 73.6 69% 92 30.12 0.0
13 18:55 SE 8 10.00 Mostly Cloudy BKN060 84 73.4 95.4 79.3 71% 91 30.12 0.0 0.05
13 18:35 SE 7 10.00 Fair CLR 83.7 73.2 71% 90 30.12 0.0
13 18:15 SE 12 G 17 10.00 Fair CLR 84.2 72.1 67% 90 30.13 0.0
13 17:55 SE 10 G 20 10.00 Partly Cloudy SCT065 85.3 71.8 64% 91 30.12 0.0
13 17:35 S 18 G 23 10.00 Fair CLR 90.5 73 57% 99 30.11 0.0
13 17:15 S 12 G 18 10.00 Fair CLR 95 72.1 48% 104 30.11 0.0
13 16:55 S 8 10.00 Partly Cloudy SCT120 94.1 72 49% 102 30.11 0.0 0.01
13 16:35 S 8 10.00 Partly Cloudy SCT060 SCT120 93.4 72.9 51% 102 30.11 0.0 0.01
13 16:15 SE 8 10.00 Partly Cloudy SCT050 SCT120 95 74.1 51% 106 30.12 0.0
13 15:55 SE 5 10.00 Fair CLR 95 78.4 59% 112 30.12 0.0 0.04
13 15:35 Calm 10.00 Fair CLR 91.6 75.7 60% 104 30.13 0.0
13 15:15 Calm 10.00 Partly Cloudy SCT095 85.1 78.3 80% 97 30.13 0.0
13 14:55 Calm 10.00 Mostly Cloudy BKN095 82 75.2 80% 89 30.14 0.0 0.01
13 14:35 W 3 10.00 Mostly Cloudy SCT034 SCT048 BKN065 80.8 76.3 86% 87 30.15 0.0
13 14:15 W 5 7.00 Rain BKN060 BKN070 OVC080 79.3 73.2 82% 83 30.16 0.0
13 13:55 W 7 10.00 Light Rain SCT041 BKN048 OVC080 80.2 73.9 81% 85 30.16 0.0 0.03
13 13:35 W 8 10.00 Overcast BKN041 OVC050 84.9 73.8 69% 92 30.17 0.0 0.02
13 13:15 NW 3 G 21 4.00 Rain BKN043 OVC050 83.1 72.1 70% 89 30.16 0.0 0.01
13 12:55 S 8 10.00 Overcast SCT043 BKN050 OVC065 89.6 70 91.8 72.5 52% 95 30.17 0.0
13 12:35 S 9 10.00 Mostly Cloudy SCT041 SCT049 BKN070 91.8 71.6 52% 99 30.17 0.0
13 12:15 S 9 10.00 Mostly Cloudy BKN039 BKN049 BKN060 90.5 71.8 54% 98 30.18 0.0
13 11:55 S 12 G 16 10.00 Mostly Cloudy BKN037 88.7 71.2 56% 95 30.18 0.0
13 11:35 SW 8 10.00 Mostly Cloudy BKN033 88.9 72.3 58% 96 30.18 0.0
13 11:15 SW 6 G 10 10.00 Mostly Cloudy BKN031 87.6 72.5 61% 95 30.19 0.0
13 10:55 SW 12 G 16 10.00 Partly Cloudy SCT029 86.5 72 62% 93 30.19 0.0
13 10:35 S 8 10.00 Fair CLR 85.8 72.5 65% 92 30.19 0.0
13 10:15 SW 9 10.00 Fair CLR 84.6 72.7 68% 91 30.19 0.0
13 09:55 S 8 10.00 Partly Cloudy SCT020 84 72.9 69% 90 30.19 0.0
13 09:35 SW 8 10.00 Partly Cloudy SCT018 83.1 72.9 71% 89 30.19 0.0
13 09:15 S 8 10.00 Partly Cloudy SCT016 81.9 73.2 75% 87 30.19 0.0
13 08:55 SW 8 10.00 Fair CLR 80.1 72.5 78% 84 30.19 0.0
13 08:35 SW 7 10.00 Fair CLR 78.4 76.1 93% 82 30.19 0.0
13 08:15 SW 7 10.00 Fair CLR 77.4 77.4 100% 79 30.19 0.0
13 07:55 S 5 10.00 Fair CLR 76.6 76.6 100% 77 30.18 0.0
13 07:35 S 3 10.00 Fair CLR 75.2 75.2 100% 73 30.17 0.0
13 07:15 Calm 7.00 Fair CLR 73.6 73.6 100% 30.16 0.0
13 06:55 Calm 7.00 Fair CLR 72.5 72.5 76.5 72.5 100% 30.16 0.0
13 06:35 Calm 7.00 Fair CLR 72.5 72.5 100% 30.15 0.0
13 06:15 Calm 7.00 Fair CLR 72.5 72.5 100% 30.15 0.0
13 05:55 Calm 10.00 Fair CLR 72.9 72.9 100% 30.15 0.0
13 05:35 Calm 10.00 Fair CLR 73.4 73.4 100% 30.14 0.0
13 05:15 Calm 10.00 Fair CLR 73.4 73.4 100% 30.14 0.0
13 04:55 Calm 10.00 Fair CLR 73.6 73.6 100% 30.13 0.0
13 04:35 S 3 10.00 Fair CLR 73.6 73.6 100% 30.13 0.0
13 04:15 S 3 10.00 Fair CLR 73.9 73.9 100% 30.12 0.0
13 03:55 S 5 10.00 Fair CLR 74.3 74.3 100% 30.12 0.0
13 03:35 S 5 10.00 Fair CLR 74.5 74.5 100% 30.12 0.0
13 03:15 S 6 10.00 Fair CLR 74.8 74.8 100% 30.13 0.0
13 02:55 S 5 10.00 Fair CLR 75.2 75.2 100% 73 30.12 0.0
13 02:35 S 6 10.00 Fair CLR 75.4 75 99% 73 30.13 0.0
13 02:15 S 7 10.00 Fair CLR 75.6 73 92% 75 30.13 0.0
13 01:55 S 6 10.00 Fair CLR 75.4 71.2 87% 75 30.13 0.0
13 01:35 S 3 10.00 Fair CLR 75.7 71.1 85% 76 30.14 0.0
13 01:15 S 5 10.00 Fair CLR 76.3 71.4 85% 77 30.13 0.0
13 00:55 S 6 10.00 Fair CLR 76.5 71.4 88.7 76.5 84% 77 30.13 0.0
13 00:35 S 5 10.00 Fair CLR 76.6 71.1 83% 78 30.13 0.0
13 00:15 S 6 10.00 Fair CLR 76.6 70.7 82% 78 30.13 0.0
12 23:55 S 5 10.00 Fair CLR 76.6 70.3 81% 78 30.12 0.0
12 23:35 S 5 10.00 Fair CLR 77 69.4 78% 79 30.12 0.0
12 23:15 SE 5 10.00 Fair CLR 77.4 69.6 77% 79 30.11 0.0
12 22:55 S 5 10.00 Fair CLR 77.9 69.4 75% 80 30.11 0.0
12 22:35 S 6 10.00 Fair CLR 78.8 69.8 74% 81 30.1 0.0
12 22:15 S 6 10.00 Fair CLR 79 69.6 73% 82 30.09 0.0
12 21:55 S 5 10.00 Fair CLR 79.3 69.3 71% 82 30.08 0.0
12 21:35 S 5 10.00 Fair CLR 79.9 68.9 69% 83 30.08 0.0
12 21:15 S 7 10.00 Fair CLR 80.8 68.7 67% 84 30.08 0.0
12 20:55 S 5 10.00 Fair CLR 82.2 68.4 63% 85 30.08 0.0
12 20:35 SE 5 10.00 Fair CLR 83.8 68.2 59% 87 30.07 0.0
12 20:15 S 5 10.00 Fair CLR 85.6 68.4 56% 89 30.07 0.0
12 19:55 S 9 10.00 Fair CLR 87.1 68.4 54% 91 30.07 0.0
12 19:35 SE 9 G 16 10.00 Fair CLR 87.3 68.4 54% 91 30.07 0.0
12 19:15 S 10 10.00 Fair CLR 88.3 68.5 52% 92 30.06 0.0
12 18:55 SE 9 G 17 10.00 Fair CLR 88.7 68.4 97.7 88.2 51% 93 30.06 0.0
12 18:35 S 8 G 18 10.00 Fair CLR 89.6 66.7 47% 93 30.06 0.0
12 18:15 S 9 10.00 Fair CLR 88.2 66.6 49% 91 30.06 0.0
12 17:55 S 15 10.00 Fair CLR 88.3 69.4 54% 93 30.05 0.0
12 17:35 S 15 G 21 10.00 Partly Cloudy SCT060 SCT100 89.2 70 53% 95 30.05 0.0
12 17:15 S 20 G 26 10.00 Partly Cloudy SCT060 SCT100 92.7 70.3 48% 99 30.05 0.0
12 16:55 S 9 10.00 Partly Cloudy SCT060 SCT100 95.9 68.9 41% 102 30.04 0.0
12 16:35 S 6 10.00 Partly Cloudy SCT060 SCT090 SCT110 94.6 68 42% 99 30.04 0.0
12 16:15 SE 3 10.00 Partly Cloudy SCT060 SCT090 96.1 68.5 41% 101 30.04 0.0
12 15:55 S 7 10.00 Partly Cloudy SCT060 SCT075 96.6 69.8 42% 103 30.04 0.0
12 15:35 S 8 10.00 Partly Cloudy SCT060 96.3 68.4 40% 102 30.05 0.0
12 15:15 S 5 10.00 Partly Cloudy SCT060 95.4 69.8 44% 102 30.05 0.0
12 14:55 SE 10 10.00 Partly Cloudy SCT060 96.8 69.3 41% 103 30.06 0.0
12 14:35 S 8 10.00 Fair CLR 96.1 69.3 42% 102 30.06 0.0
12 14:15 S 6 10.00 Partly Cloudy SCT050 94.6 69.6 44% 101 30.07 0.0
12 13:55 SE 7 10.00 Fair CLR 95 69.8 44% 101 30.07 0.0
12 13:35 SE 5 10.00 Fair CLR 94.8 69.8 44% 101 30.08 0.0
12 13:15 S 7 10.00 Partly Cloudy SCT065 94.6 71.1 46% 102 30.09 0.0
12 12:55 SE 10 10.00 Partly Cloudy SCT046 SCT050 94.3 70.7 94.3 71.2 46% 101 30.09 0.0
12 12:35 S 7 10.00 Partly Cloudy SCT048 93.9 70.5 47% 101 30.1 0.0
Date Time (cdt) Wind (mph) Vis. (mi.) Weather Sky Cond. Air Dwpt Max. Min. Relative Humidity Wind Chill (°F) Heat Index (°F) altimeter (in) sea level (mb) 1 hr 3 hr 6 hr
6 hour
Temperature (ºF) Pressure Precipitation (in)